Calgary Springbank Airport
CYBW : now visible

Airfield :











YOU CAN JOIN US ON...

 
LOGIN :

Register | Disclaimer

   EN    FR    IT 

 









Legend :    VFR   Marginal VFR   IFR   Intensive IFR   Very Intensive IFR
Visi :
Ceiling :
>= 8 km
>= 3000ft
5 to 8 km
1000 to 3000 ft
1500m to 5 km
500 to 1000 ft
800 to 1500m
200 to 500 ft
< 800m
< 200 ft
Symbols :   Thunderstorms  Fog  Heavy snow  Heavy precipitations  Wind > 20 kt






- Airport Elevation : 3937 ft
- IATA code : YBW


CYBW - Calgary Springbank

CURRENT METAR :
  • 171900Z AUTO 26016G24KT 9SM 10/M03 A2950 RMK CLD MISG SLP005 DENSITY ALT 4800FT

EXPIRED METARs :
  • 171800Z AUTO 26015KT 9SM 09/M03 A2952 RMK CLD MISG SLP017 DENSITY ALT 4700FT
  • 171700Z AUTO 29011KT 9SM 08/M03 A2954 RMK CLD MISG SLP024 DENSITY ALT 4500FT

TAF TAF CYBW
Valid from the 17 at 13:00 until the 18 at 01:00 UTC


171240Z 1713/1801 29015G25KT P6SM BKN250
BECMG 1716/1718 28022G32KT RMK FCST BASED ON AUTO OBS. NXT FCST BY 171800Z
CZEG FIR / North America



MET'MAP, your aeronautical weather chart ! - Copyright ORBIFLY December 2007 - Disclaimer

ORBIFLY MET'MAP TEAM :

Programming & Development : Alexandra Zaïnal
Concept & original design : Baudouin d'Aumeries
Assistance for programming : Marc-Olivier Méhu
Technical & hardware support : Manuel Goepfert

Contact : metmap@orbifly.com




SOURCES & CREDITS :

   NOAA       Earth
Advisory